Time,TemperatureF,DewpointF,PressureIn,WindDirection,WindDirectionDegrees,WindSpeedMPH,WindSpeedGustMPH,Humidity,HourlyPrecipIn,Conditions,Clouds,dailyrainin,SoftwareType,DateUTC
2013-02-15 00:05:00,35.4,21.3,30.17,NNE,22,2.9,3.4,56,0.00,,CLR,0.00,VWS V14.01,2013-02-15 06:05:00,
2013-02-15 00:10:00,35.0,21.3,30.18,NNE,22,0.4,4.0,57,0.00,,CLR,0.00,VWS V14.01,2013-02-15 06:10:00,
2013-02-15 00:15:00,34.9,21.2,30.18,NNE,22,1.1,1.6,57,0.00,,FEW065,0.00,VWS V14.01,2013-02-15 06:15:00,
2013-02-15 00:20:00,34.7,21.5,30.18,North,0,0.9,1.8,58,0.00,,FEW065,0.00,VWS V14.01,2013-02-15 06:20:00,
2013-02-15 00:25:00,34.7,21.9,30.18,NE,45,1.1,1.6,59,0.00,,FEW065,0.00,VWS V14.01,2013-02-15 06:25:00,
2013-02-15 00:30:00,34.5,21.7,30.18,North,0,1.1,2.5,59,0.00,,FEW065,0.00,VWS V14.01,2013-02-15 06:30:00,
2013-02-15 00:35:00,34.3,21.9,30.18,NNW,338,0.7,3.4,60,0.00,,FEW065,0.00,VWS V14.01,2013-02-15 06:35:00,
2013-02-15 00:40:00,34.1,21.7,30.18,WNW,292,2.5,2.5,60,0.00,,FEW065,0.00,VWS V14.01,2013-02-15 06:40:00,
2013-02-15 00:45:00,34.0,21.6,30.18,NE,45,1.3,3.1,60,0.00,,FEW065,0.00,VWS V14.01,2013-02-15 06:45:00,
2013-02-15 00:50:00,33.6,21.2,30.19,West,270,1.3,2.5,60,0.00,,FEW065,0.00,VWS V14.01,2013-02-15 06:50:00,
2013-02-15 00:55:00,33.4,21.0,30.19,NNW,338,1.1,1.8,60,0.00,,FEW065,0.00,VWS V14.01,2013-02-15 06:55:00,
2013-02-15 01:05:00,33.2,20.8,30.19,NNW,338,0.4,1.8,60,0.00,,FEW065,0.00,VWS V14.01,2013-02-15 07:05:00,
2013-02-15 01:10:00,33.1,20.7,30.19,NW,315,3.1,3.1,60,0.00,,FEW065,0.00,VWS V14.01,2013-02-15 07:10:00,
2013-02-15 01:15:00,33.1,20.7,30.19,NNW,338,0.7,3.1,60,0.00,,FEW060,0.00,VWS V14.01,2013-02-15 07:15:00,
2013-02-15 01:20:00,32.9,20.9,30.19,NW,315,3.1,3.1,61,0.00,,FEW060,0.00,VWS V14.01,2013-02-15 07:20:00,
2013-02-15 01:25:00,32.9,20.9,30.19,NNW,338,1.1,3.1,61,0.00,,FEW060,0.00,VWS V14.01,2013-02-15 07:25:00,
2013-02-15 01:30:00,32.7,20.8,30.20,NNW,338,2.5,2.5,61,0.00,,FEW060,0.00,VWS V14.01,2013-02-15 07:30:00,
2013-02-15 01:35:00,32.7,21.1,30.20,NNE,22,3.1,4.5,62,0.00,,FEW060,0.00,VWS V14.01,2013-02-15 07:35:00,
2013-02-15 01:40:00,32.5,20.9,30.20,North,0,2.5,3.1,62,0.00,,FEW060,0.00,VWS V14.01,2013-02-15 07:40:00,
2013-02-15 01:45:00,32.5,20.9,30.20,West,270,0.9,3.6,62,0.00,,FEW060,0.00,VWS V14.01,2013-02-15 07:45:00,
2013-02-15 01:50:00,32.5,20.9,30.20,NE,45,0.9,2.2,62,0.00,,FEW060,0.00,VWS V14.01,2013-02-15 07:50:00,
2013-02-15 01:55:00,32.5,21.3,30.20,ENE,68,0.7,3.8,63,0.00,,FEW060,0.00,VWS V14.01,2013-02-15 07:55:00,
2013-02-15 02:05:00,32.3,21.1,30.21,NNW,338,1.1,4.5,63,0.00,,FEW060,0.00,VWS V14.01,2013-02-15 08:05:00,
2013-02-15 02:10:00,32.2,21.0,30.21,NE,45,3.1,4.0,63,0.00,,FEW060,0.00,VWS V14.01,2013-02-15 08:10:00,
2013-02-15 02:15:00,32.0,20.9,30.22,NE,45,1.6,9.6,63,0.00,,OVC021,0.00,VWS V14.01,2013-02-15 08:15:00,
2013-02-15 02:20:00,31.6,20.5,30.22,ENE,68,2.0,6.0,63,0.00,,OVC021,0.00,VWS V14.01,2013-02-15 08:20:00,
2013-02-15 02:25:00,31.4,20.3,30.22,NNE,22,1.1,2.0,63,0.00,,OVC021,0.00,VWS V14.01,2013-02-15 08:25:00,
2013-02-15 02:30:00,31.3,20.2,30.23,West,270,1.1,2.9,63,0.00,,OVC021,0.00,VWS V14.01,2013-02-15 08:30:00,
2013-02-15 02:35:00,31.1,20.4,30.23,NNE,22,0.9,2.2,64,0.00,,OVC021,0.00,VWS V14.01,2013-02-15 08:35:00,
2013-02-15 02:40:00,30.9,20.2,30.23,West,270,0.7,0.9,64,0.00,,OVC021,0.00,VWS V14.01,2013-02-15 08:40:00,
2013-02-15 02:45:00,30.7,20.3,30.24,NW,315,0.4,4.0,65,0.00,,OVC021,0.00,VWS V14.01,2013-02-15 08:45:00,
2013-02-15 02:50:00,30.5,19.8,30.24,ENE,68,1.1,1.8,64,0.00,,OVC021,0.00,VWS V14.01,2013-02-15 08:50:00,
2013-02-15 02:55:00,30.4,20.1,30.24,NNE,22,0.2,2.0,65,0.00,,OVC021,0.00,VWS V14.01,2013-02-15 08:55:00,
2013-02-15 03:05:00,30.0,19.7,30.24,North,0,0.2,2.0,65,0.00,,OVC021,0.00,VWS V14.01,2013-02-15 09:05:00,
2013-02-15 03:10:00,29.8,19.5,30.24,WSW,248,0.4,2.0,65,0.00,,OVC021,0.00,VWS V14.01,2013-02-15 09:10:00,
2013-02-15 03:15:00,29.6,18.9,30.25,NNW,338,0.0,1.3,64,0.00,,OVC033,0.00,VWS V14.01,2013-02-15 09:15:00,
2013-02-15 03:20:00,29.6,18.9,30.25,NE,45,1.6,2.9,64,0.00,,OVC033,0.00,VWS V14.01,2013-02-15 09:20:00,
2013-02-15 03:25:00,29.5,18.5,30.25,SSE,158,1.8,4.0,63,0.00,,OVC033,0.00,VWS V14.01,2013-02-15 09:25:00,
2013-02-15 03:30:00,29.3,18.3,30.25,ENE,68,0.7,2.0,63,0.00,,OVC033,0.00,VWS V14.01,2013-02-15 09:30:00,
2013-02-15 03:35:00,29.1,17.7,30.25,NNW,338,0.0,2.5,62,0.00,,OVC033,0.00,VWS V14.01,2013-02-15 09:35:00,
2013-02-15 03:40:00,29.1,17.7,30.25,NNE,22,0.4,0.7,62,0.00,,OVC033,0.00,VWS V14.01,2013-02-15 09:40:00,
2013-02-15 03:45:00,28.9,17.5,30.26,NW,315,1.1,1.1,62,0.00,,OVC033,0.00,VWS V14.01,2013-02-15 09:45:00,
2013-02-15 03:50:00,28.9,17.2,30.26,NNW,338,1.1,3.4,61,0.00,,OVC033,0.00,VWS V14.01,2013-02-15 09:50:00,
2013-02-15 03:55:00,28.6,16.5,30.26,North,0,0.7,3.1,60,0.00,,OVC033,0.00,VWS V14.01,2013-02-15 09:55:00,
2013-02-15 04:05:00,28.2,16.1,30.26,North,0,0.2,1.1,60,0.00,,OVC033,0.00,VWS V14.01,2013-02-15 10:05:00,
2013-02-15 04:10:00,28.0,15.9,30.26,NNE,22,0.4,0.7,60,0.00,,OVC033,0.00,VWS V14.01,2013-02-15 10:10:00,
2013-02-15 04:15:00,27.8,15.7,30.26,NNW,338,0.7,2.0,60,0.00,,OVC044,0.00,VWS V14.01,2013-02-15 10:15:00,
2013-02-15 04:20:00,27.7,15.6,30.27,North,0,1.1,1.3,60,0.00,,OVC044,0.00,VWS V14.01,2013-02-15 10:20:00,
2013-02-15 04:25:00,27.5,15.1,30.27,West,270,1.1,2.0,59,0.00,,OVC044,0.00,VWS V14.01,2013-02-15 10:25:00,
2013-02-15 04:30:00,27.5,15.1,30.27,NE,45,0.4,3.4,59,0.00,,OVC044,0.00,VWS V14.01,2013-02-15 10:30:00,
2013-02-15 04:35:00,27.3,14.9,30.27,NE,45,0.4,2.2,59,0.00,,OVC044,0.00,VWS V14.01,2013-02-15 10:35:00,
2013-02-15 04:40:00,26.9,14.5,30.28,NNE,22,0.4,1.1,59,0.00,,OVC044,0.00,VWS V14.01,2013-02-15 10:40:00,
2013-02-15 04:45:00,26.8,14.4,30.28,NNW,338,2.0,2.0,59,0.00,,OVC044,0.00,VWS V14.01,2013-02-15 10:45:00,
2013-02-15 04:50:00,26.6,14.2,30.28,NNE,22,0.4,2.0,59,0.00,,OVC044,0.00,VWS V14.01,2013-02-15 10:50:00,
2013-02-15 04:55:00,26.4,14.0,30.28,North,0,1.1,2.0,59,0.00,,OVC044,0.00,VWS V14.01,2013-02-15 10:55:00,
2013-02-15 05:05:00,25.9,13.6,30.29,NE,45,1.1,1.6,59,0.00,,OVC044,0.00,VWS V14.01,2013-02-15 11:05:00,
2013-02-15 05:10:00,25.5,13.2,30.29,NE,45,0.4,2.5,59,0.00,,OVC044,0.00,VWS V14.01,2013-02-15 11:10:00,
2013-02-15 05:15:00,25.1,12.8,30.30,ENE,68,1.1,3.8,59,0.00,,SCT050,0.00,VWS V14.01,2013-02-15 11:15:00,
2013-02-15 05:20:00,24.8,12.9,30.30,NE,45,0.7,1.1,60,0.00,,SCT050,0.00,VWS V14.01,2013-02-15 11:20:00,
2013-02-15 05:25:00,24.6,12.7,30.30,ENE,68,1.1,4.7,60,0.00,,SCT050,0.00,VWS V14.01,2013-02-15 11:25:00,
2013-02-15 05:30:00,24.4,12.5,30.30,NE,45,0.4,1.8,60,0.00,,SCT050,0.00,VWS V14.01,2013-02-15 11:30:00,
2013-02-15 05:35:00,24.1,12.2,30.31,ENE,68,1.8,1.8,60,0.00,,SCT050,0.00,VWS V14.01,2013-02-15 11:35:00,
2013-02-15 05:40:00,23.9,12.1,30.31,NE,45,0.4,1.8,60,0.00,,SCT050,0.00,VWS V14.01,2013-02-15 11:40:00,
2013-02-15 05:45:00,23.7,11.5,30.31,NE,45,1.8,1.8,59,0.00,,SCT050,0.00,VWS V14.01,2013-02-15 11:45:00,
2013-02-15 05:50:00,23.5,11.3,30.31,ENE,68,0.4,1.8,59,0.00,,SCT050,0.00,VWS V14.01,2013-02-15 11:50:00,
2013-02-15 05:55:00,23.2,11.0,30.31,NE,45,0.2,2.0,59,0.00,,SCT050,0.00,VWS V14.01,2013-02-15 11:55:00,
2013-02-15 06:05:00,23.0,10.8,30.31,NNE,22,1.1,1.1,59,0.00,,SCT050,0.00,VWS V14.01,2013-02-15 12:05:00,
2013-02-15 06:10:00,22.8,10.6,30.32,WNW,292,1.6,1.6,59,0.00,,SCT050,0.00,VWS V14.01,2013-02-15 12:10:00,
2013-02-15 06:15:00,22.6,10.4,30.32,North,0,0.0,1.6,59,0.00,,CLR,0.00,VWS V14.01,2013-02-15 12:15:00,
2013-02-15 06:20:00,22.4,10.3,30.32,NE,45,0.2,2.2,59,0.00,,CLR,0.00,VWS V14.01,2013-02-15 12:20:00,
2013-02-15 06:25:00,22.3,10.2,30.32,North,0,0.0,0.7,59,0.00,,CLR,0.00,VWS V14.01,2013-02-15 12:25:00,
2013-02-15 06:30:00,22.1,10.0,30.32,NE,45,0.4,0.4,59,0.00,,CLR,0.00,VWS V14.01,2013-02-15 12:30:00,
2013-02-15 06:35:00,21.9,9.8,30.33,ENE,68,0.7,0.7,59,0.00,,CLR,0.00,VWS V14.01,2013-02-15 12:35:00,
2013-02-15 06:40:00,21.9,9.8,30.33,NE,45,0.0,0.7,59,0.00,,CLR,0.00,VWS V14.01,2013-02-15 12:40:00,
2013-02-15 06:45:00,21.7,9.6,30.33,NE,45,0.4,0.4,59,0.00,,CLR,0.00,VWS V14.01,2013-02-15 12:45:00,
2013-02-15 06:50:00,21.7,9.6,30.33,NW,315,0.0,0.4,59,0.00,,CLR,0.00,VWS V14.01,2013-02-15 12:50:00,
2013-02-15 06:55:00,21.5,9.8,30.33,North,0,0.2,0.7,60,0.00,,CLR,0.00,VWS V14.01,2013-02-15 12:55:00,
2013-02-15 07:05:00,21.2,9.9,30.33,NE,45,0.4,1.6,61,0.00,,CLR,0.00,VWS V14.01,2013-02-15 13:05:00,
2013-02-15 07:10:00,21.0,9.7,30.33,NNW,338,0.0,0.4,61,0.00,,CLR,0.00,VWS V14.01,2013-02-15 13:10:00,
2013-02-15 07:15:00,21.0,10.0,30.34,NNW,338,0.2,1.1,62,0.00,,CLR,0.00,VWS V14.01,2013-02-15 13:15:00,
2013-02-15 07:20:00,20.8,9.9,30.34,NNE,22,0.7,4.7,62,0.00,,CLR,0.00,VWS V14.01,2013-02-15 13:20:00,
2013-02-15 07:25:00,20.8,10.2,30.34,NE,45,0.4,2.0,63,0.00,,CLR,0.00,VWS V14.01,2013-02-15 13:25:00,
2013-02-15 07:30:00,20.6,10.4,30.34,North,0,0.4,1.8,64,0.00,,CLR,0.00,VWS V14.01,2013-02-15 13:30:00,
2013-02-15 07:39:00,20.3,10.4,30.35,NNW,338,1.8,1.8,65,0.00,,CLR,0.00,VWS V14.01,2013-02-15 13:39:00,
2013-02-15 07:45:00,20.3,10.4,30.35,NE,45,0.7,1.1,65,0.00,,CLR,0.00,VWS V14.01,2013-02-15 13:45:00,
2013-02-15 07:50:00,20.1,10.2,30.35,NE,45,0.4,0.7,65,0.00,,CLR,0.00,VWS V14.01,2013-02-15 13:50:00,
2013-02-15 07:55:00,20.1,10.6,30.35,NE,45,0.4,1.6,66,0.00,,CLR,0.00,VWS V14.01,2013-02-15 13:55:00,
2013-02-15 08:05:00,20.1,10.6,30.35,NNE,22,0.4,2.9,66,0.00,,CLR,0.00,VWS V14.01,2013-02-15 14:05:00,
2013-02-15 08:10:00,20.3,10.8,30.36,North,0,2.7,3.6,66,0.00,,CLR,0.00,VWS V14.01,2013-02-15 14:10:00,
2013-02-15 08:15:00,20.3,10.8,30.36,NNW,338,0.2,2.7,66,0.00,,CLR,0.00,VWS V14.01,2013-02-15 14:15:00,
2013-02-15 08:20:00,20.5,11.3,30.36,NE,45,0.4,0.4,67,0.00,,CLR,0.00,VWS V14.01,2013-02-15 14:20:00,
2013-02-15 08:25:00,21.0,11.8,30.36,North,0,0.2,0.7,67,0.00,,CLR,0.00,VWS V14.01,2013-02-15 14:25:00,
2013-02-15 08:30:00,21.4,12.2,30.36,North,0,0.0,1.8,67,0.00,,CLR,0.00,VWS V14.01,2013-02-15 14:30:00,
2013-02-15 08:35:00,21.5,11.9,30.36,NNW,338,0.0,1.8,66,0.00,,CLR,0.00,VWS V14.01,2013-02-15 14:35:00,
2013-02-15 08:40:00,21.7,12.1,30.36,North,0,0.0,1.1,66,0.00,,CLR,0.00,VWS V14.01,2013-02-15 14:40:00,
2013-02-15 08:45:00,22.1,12.5,30.36,NE,45,0.4,0.4,66,0.00,,CLR,0.00,VWS V14.01,2013-02-15 14:45:00,
2013-02-15 08:50:00,22.4,12.8,30.36,ENE,68,0.7,0.7,66,0.00,,CLR,0.00,VWS V14.01,2013-02-15 14:50:00,
2013-02-15 08:55:00,22.6,13.0,30.36,NW,315,1.3,1.3,66,0.00,,CLR,0.00,VWS V14.01,2013-02-15 14:55:00,
2013-02-15 09:05:00,23.3,13.3,30.37,NE,45,0.9,3.1,65,0.00,,CLR,0.00,VWS V14.01,2013-02-15 15:05:00,
2013-02-15 09:10:00,23.7,13.3,30.37,NE,45,1.1,1.1,64,0.00,,CLR,0.00,VWS V14.01,2013-02-15 15:10:00,
2013-02-15 09:15:00,24.1,13.7,30.36,North,0,0.4,2.7,64,0.00,,CLR,0.00,VWS V14.01,2013-02-15 15:15:00,
2013-02-15 09:20:00,24.6,14.2,30.36,North,0,0.9,0.9,64,0.00,,CLR,0.00,VWS V14.01,2013-02-15 15:20:00,
2013-02-15 09:25:00,25.0,14.2,30.36,NE,45,0.9,1.1,63,0.00,,CLR,0.00,VWS V14.01,2013-02-15 15:25:00,
2013-02-15 09:30:00,25.3,14.5,30.36,NE,45,0.7,1.3,63,0.00,,CLR,0.00,VWS V14.01,2013-02-15 15:30:00,
2013-02-15 09:35:00,25.7,14.5,30.36,NNW,338,3.6,3.6,62,0.00,,CLR,0.00,VWS V14.01,2013-02-15 15:35:00,
2013-02-15 09:40:00,26.0,14.8,30.36,ENE,68,0.4,3.6,62,0.00,,CLR,0.00,VWS V14.01,2013-02-15 15:40:00,
2013-02-15 09:45:00,26.6,15.4,30.36,ENE,68,0.9,1.1,62,0.00,,CLR,0.00,VWS V14.01,2013-02-15 15:45:00,
2013-02-15 09:50:00,26.9,15.6,30.36,SSE,158,0.9,2.5,62,0.00,,CLR,0.00,VWS V14.01,2013-02-15 15:50:00,
2013-02-15 09:55:00,27.5,15.8,30.37,NE,45,2.0,2.0,61,0.00,,CLR,0.00,VWS V14.01,2013-02-15 15:55:00,
2013-02-15 10:05:00,28.2,16.1,30.37,NNW,338,0.0,1.1,60,0.00,,CLR,0.00,VWS V14.01,2013-02-15 16:05:00,
2013-02-15 10:10:00,28.7,16.6,30.36,North,0,1.1,1.8,60,0.00,,CLR,0.00,VWS V14.01,2013-02-15 16:10:00,
2013-02-15 10:15:00,29.1,16.6,30.37,ENE,68,0.7,4.0,59,0.00,,CLR,0.00,VWS V14.01,2013-02-15 16:15:00,
2013-02-15 10:20:00,29.6,16.6,30.37,East,90,0.0,2.9,58,0.00,,CLR,0.00,VWS V14.01,2013-02-15 16:20:00,
2013-02-15 10:25:00,30.2,16.8,30.37,NE,45,2.0,2.5,57,0.00,,CLR,0.00,VWS V14.01,2013-02-15 16:25:00,
2013-02-15 10:30:00,30.4,16.6,30.37,North,0,0.9,2.0,56,0.00,,CLR,0.00,VWS V14.01,2013-02-15 16:30:00,
2013-02-15 10:35:00,30.5,16.7,30.37,NNW,338,0.4,3.1,56,0.00,,CLR,0.00,VWS V14.01,2013-02-15 16:35:00,
2013-02-15 10:40:00,30.4,16.2,30.37,ENE,68,0.9,1.1,55,0.00,,CLR,0.00,VWS V14.01,2013-02-15 16:40:00,
2013-02-15 10:45:00,30.7,16.5,30.37,NW,315,0.9,2.0,55,0.00,,CLR,0.00,VWS V14.01,2013-02-15 16:45:00,
2013-02-15 10:50:00,31.1,16.8,30.36,North,0,0.7,2.7,55,0.00,,CLR,0.00,VWS V14.01,2013-02-15 16:50:00,
2013-02-15 10:55:00,31.4,17.1,30.36,NNW,338,0.7,1.1,55,0.00,,CLR,0.00,VWS V14.01,2013-02-15 16:55:00,
2013-02-15 11:05:00,31.6,16.5,30.36,North,0,1.3,2.0,53,0.00,,CLR,0.00,VWS V14.01,2013-02-15 17:05:00,
2013-02-15 11:10:00,32.0,16.8,30.36,NNE,22,1.1,1.8,53,0.00,,CLR,0.00,VWS V14.01,2013-02-15 17:10:00,
2013-02-15 11:19:00,32.7,16.6,30.36,NNE,22,0.7,2.7,51,0.00,,CLR,0.00,VWS V14.01,2013-02-15 17:19:00,
2013-02-15 11:25:00,32.7,15.7,30.36,East,90,0.7,2.7,49,0.00,,CLR,0.00,VWS V14.01,2013-02-15 17:25:00,
2013-02-15 11:30:00,32.9,16.3,30.36,NNW,338,2.9,3.8,50,0.00,,CLR,0.00,VWS V14.01,2013-02-15 17:30:00,
2013-02-15 11:35:00,33.4,16.3,30.36,NNE,22,1.1,3.4,49,0.00,,CLR,0.00,VWS V14.01,2013-02-15 17:35:00,
2013-02-15 11:40:00,33.8,16.7,30.36,NE,45,0.9,1.1,49,0.00,,CLR,0.00,VWS V14.01,2013-02-15 17:40:00,
2013-02-15 11:49:00,34.0,16.4,30.35,NW,315,3.1,3.1,48,0.00,,CLR,0.00,VWS V14.01,2013-02-15 17:49:00,
2013-02-15 11:55:00,34.5,16.4,30.35,ENE,68,1.8,2.9,47,0.00,,CLR,0.00,VWS V14.01,2013-02-15 17:55:00,
2013-02-15 12:05:00,34.7,15.6,30.35,North,0,2.5,2.5,45,0.00,,CLR,0.00,VWS V14.01,2013-02-15 18:05:00,
2013-02-15 12:10:00,34.5,15.9,30.34,North,0,1.8,2.5,46,0.00,,CLR,0.00,VWS V14.01,2013-02-15 18:10:00,
2013-02-15 12:15:00,35.0,16.3,30.34,North,0,1.8,1.8,46,0.00,,CLR,0.00,VWS V14.01,2013-02-15 18:15:00,
2013-02-15 12:20:00,35.6,16.4,30.34,NW,315,1.1,3.1,45,0.00,,CLR,0.00,VWS V14.01,2013-02-15 18:20:00,
2013-02-15 12:25:00,35.8,16.5,30.34,NE,45,1.1,1.1,45,0.00,,CLR,0.00,VWS V14.01,2013-02-15 18:25:00,
2013-02-15 12:30:00,35.6,16.4,30.34,WNW,292,0.4,3.1,45,0.00,,CLR,0.00,VWS V14.01,2013-02-15 18:30:00,
2013-02-15 12:35:00,35.8,16.5,30.33,SSW,202,2.5,2.5,45,0.00,,CLR,0.00,VWS V14.01,2013-02-15 18:35:00,
2013-02-15 12:40:00,36.1,16.8,30.33,NNE,22,1.1,3.1,45,0.00,,CLR,0.00,VWS V14.01,2013-02-15 18:40:00,
2013-02-15 12:45:00,36.3,17.0,30.33,WNW,292,2.5,2.5,45,0.00,,CLR,0.00,VWS V14.01,2013-02-15 18:45:00,
2013-02-15 12:55:00,37.4,17.5,30.32,ENE,68,0.9,4.5,44,0.00,,CLR,0.00,VWS V14.01,2013-02-15 18:55:00,
2013-02-15 13:05:00,37.4,17.0,30.32,NNE,22,0.9,1.8,43,0.00,,CLR,0.00,VWS V14.01,2013-02-15 19:05:00,
2013-02-15 13:10:00,37.6,17.1,30.32,WNW,292,4.7,4.7,43,0.00,,CLR,0.00,VWS V14.01,2013-02-15 19:10:00,
2013-02-15 13:15:00,37.7,17.2,30.32,NNW,338,1.3,4.7,43,0.00,,CLR,0.00,VWS V14.01,2013-02-15 19:15:00,
2013-02-15 13:20:00,37.4,17.0,30.31,ENE,68,0.4,2.9,43,0.00,,CLR,0.00,VWS V14.01,2013-02-15 19:20:00,
2013-02-15 13:25:00,37.6,17.1,30.31,NNE,22,4.0,4.0,43,0.00,,CLR,0.00,VWS V14.01,2013-02-15 19:25:00,
2013-02-15 13:30:00,37.4,17.0,30.31,ESE,112,1.1,4.0,43,0.00,,CLR,0.00,VWS V14.01,2013-02-15 19:30:00,
2013-02-15 13:35:00,37.6,17.1,30.31,North,0,0.4,1.3,43,0.00,,CLR,0.00,VWS V14.01,2013-02-15 19:35:00,
2013-02-15 13:40:00,37.9,17.4,30.31,West,270,0.9,3.6,43,0.00,,CLR,0.00,VWS V14.01,2013-02-15 19:40:00,
2013-02-15 13:45:00,38.1,18.1,30.31,North,0,5.4,5.4,44,0.00,,CLR,0.00,VWS V14.01,2013-02-15 19:45:00,
2013-02-15 13:50:00,38.3,18.3,30.30,North,0,0.4,5.4,44,0.00,,CLR,0.00,VWS V14.01,2013-02-15 19:50:00,
2013-02-15 13:55:00,38.6,18.0,30.30,ENE,68,1.1,2.9,43,0.00,,CLR,0.00,VWS V14.01,2013-02-15 19:55:00,
2013-02-15 14:05:00,38.6,18.6,30.30,NE,45,2.2,2.5,44,0.00,,CLR,0.00,VWS V14.01,2013-02-15 20:05:00,
2013-02-15 14:10:00,38.5,18.5,30.29,North,0,0.9,2.2,44,0.00,,CLR,0.00,VWS V14.01,2013-02-15 20:10:00,
2013-02-15 14:15:00,38.5,18.5,30.30,ENE,68,1.6,3.4,44,0.00,,CLR,0.00,VWS V14.01,2013-02-15 20:15:00,
2013-02-15 14:20:00,38.6,18.0,30.30,NNE,22,0.4,2.9,43,0.00,,CLR,0.00,VWS V14.01,2013-02-15 20:20:00,
2013-02-15 14:25:00,38.6,18.0,30.30,NE,45,1.1,1.3,43,0.00,,CLR,0.00,VWS V14.01,2013-02-15 20:25:00,
2013-02-15 14:30:00,38.6,18.0,30.29,North,0,0.7,2.5,43,0.00,,CLR,0.00,VWS V14.01,2013-02-15 20:30:00,
2013-02-15 14:35:00,38.5,18.0,30.29,SSW,202,3.4,3.4,43,0.00,,CLR,0.00,VWS V14.01,2013-02-15 20:35:00,
2013-02-15 14:40:00,38.5,18.0,30.29,NNW,338,1.3,3.4,43,0.00,,CLR,0.00,VWS V14.01,2013-02-15 20:40:00,
2013-02-15 14:45:00,38.3,17.8,30.29,NNW,338,0.4,1.6,43,0.00,,CLR,0.00,VWS V14.01,2013-02-15 20:45:00,
2013-02-15 14:50:00,38.1,17.6,30.29,WNW,292,3.6,3.6,43,0.00,,CLR,0.00,VWS V14.01,2013-02-15 20:50:00,
2013-02-15 14:55:00,38.3,17.8,30.29,North,0,0.4,3.6,43,0.00,,CLR,0.00,VWS V14.01,2013-02-15 20:55:00,
2013-02-15 15:05:00,38.6,18.0,30.29,NE,45,1.8,2.9,43,0.00,,CLR,0.00,VWS V14.01,2013-02-15 21:05:00,
2013-02-15 15:10:00,38.6,18.0,30.29,ENE,68,0.7,1.8,43,0.00,,CLR,0.00,VWS V14.01,2013-02-15 21:10:00,
2013-02-15 15:15:00,38.3,17.8,30.29,NNE,22,3.4,3.4,43,0.00,,FEW055,0.00,VWS V14.01,2013-02-15 21:15:00,
2013-02-15 15:20:00,38.1,17.0,30.29,NNW,338,4.7,4.7,42,0.00,,FEW055,0.00,VWS V14.01,2013-02-15 21:20:00,
2013-02-15 15:25:00,37.9,16.9,30.29,NNE,22,0.4,4.7,42,0.00,,FEW055,0.00,VWS V14.01,2013-02-15 21:25:00,
2013-02-15 15:30:00,37.6,16.6,30.28,NE,45,1.6,2.5,42,0.00,,FEW055,0.00,VWS V14.01,2013-02-15 21:30:00,
2013-02-15 15:35:00,37.4,16.4,30.29,NNE,22,0.7,2.7,42,0.00,,FEW055,0.00,VWS V14.01,2013-02-15 21:35:00,
2013-02-15 15:40:00,37.0,16.1,30.29,North,0,1.1,2.5,42,0.00,,FEW055,0.00,VWS V14.01,2013-02-15 21:40:00,
2013-02-15 15:45:00,36.7,15.8,30.29,NW,315,0.0,1.3,42,0.00,,FEW055,0.00,VWS V14.01,2013-02-15 21:45:00,
2013-02-15 15:50:00,36.3,15.4,30.28,North,0,0.9,2.5,42,0.00,,FEW055,0.00,VWS V14.01,2013-02-15 21:50:00,
2013-02-15 15:59:00,35.9,15.1,30.28,East,90,1.1,3.4,42,0.00,,FEW055,0.00,VWS V14.01,2013-02-15 21:59:00,
2013-02-15 16:05:00,35.8,15.0,30.29,NNW,338,1.1,1.3,42,0.00,,FEW055,0.00,VWS V14.01,2013-02-15 22:05:00,
2013-02-15 16:10:00,35.8,15.0,30.28,North,0,0.4,3.4,42,0.00,,FEW055,0.00,VWS V14.01,2013-02-15 22:10:00,
2013-02-15 16:15:00,35.6,14.8,30.28,NNE,22,0.4,1.3,42,0.00,,SCT060,0.00,VWS V14.01,2013-02-15 22:15:00,
2013-02-15 16:20:00,35.6,14.8,30.29,WNW,292,1.3,3.6,42,0.00,,SCT060,0.00,VWS V14.01,2013-02-15 22:20:00,
2013-02-15 16:25:00,35.4,14.6,30.29,NNE,22,1.1,1.3,42,0.00,,SCT060,0.00,VWS V14.01,2013-02-15 22:25:00,
2013-02-15 16:30:00,35.4,14.6,30.29,North,0,0.4,1.8,42,0.00,,SCT060,0.00,VWS V14.01,2013-02-15 22:30:00,
2013-02-15 16:35:00,35.2,14.4,30.29,North,0,0.4,2.0,42,0.00,,SCT060,0.00,VWS V14.01,2013-02-15 22:35:00,
2013-02-15 16:40:00,35.0,14.2,30.29,NNW,338,0.0,1.3,42,0.00,,SCT060,0.00,VWS V14.01,2013-02-15 22:40:00,
2013-02-15 16:49:00,34.7,14.5,30.29,NE,45,3.8,3.8,43,0.00,,SCT060,0.00,VWS V14.01,2013-02-15 22:49:00,
2013-02-15 16:59:00,34.3,14.1,30.29,North,0,0.0,3.1,43,0.00,,SCT060,0.00,VWS V14.01,2013-02-15 22:59:00,
2013-02-15 17:05:00,34.0,14.4,30.29,North,0,0.4,1.8,44,0.00,,SCT060,0.00,VWS V14.01,2013-02-15 23:05:00,
2013-02-15 17:10:00,33.6,14.0,30.29,North,0,0.0,0.7,44,0.00,,SCT070,0.00,VWS V14.01,2013-02-15 23:10:00,
2013-02-15 17:15:00,33.4,13.3,30.28,NW,315,0.4,1.1,43,0.00,,SCT070,0.00,VWS V14.01,2013-02-15 23:15:00,
2013-02-15 17:20:00,33.2,13.1,30.28,North,0,0.0,1.6,43,0.00,,SCT070,0.00,VWS V14.01,2013-02-15 23:20:00,
2013-02-15 17:25:00,33.2,13.7,30.28,NE,45,0.4,0.4,44,0.00,,SCT070,0.00,VWS V14.01,2013-02-15 23:25:00,
2013-02-15 17:30:00,32.9,13.4,30.28,NW,315,0.4,0.4,44,0.00,,SCT070,0.00,VWS V14.01,2013-02-15 23:30:00,
2013-02-15 17:35:00,32.7,13.2,30.28,NNE,22,1.1,1.1,44,0.00,,SCT070,0.00,VWS V14.01,2013-02-15 23:35:00,
2013-02-15 17:40:00,32.5,13.0,30.28,North,0,0.0,1.1,44,0.00,,SCT070,0.00,VWS V14.01,2013-02-15 23:40:00,
2013-02-15 17:45:00,32.3,13.4,30.28,NNE,22,0.0,0.4,45,0.00,,SCT070,0.00,VWS V14.01,2013-02-15 23:45:00,
2013-02-15 17:55:00,31.8,12.9,30.28,North,0,0.0,0.0,45,0.00,,SCT070,0.00,VWS V14.01,2013-02-15 23:55:00,
2013-02-15 18:05:00,31.4,13.0,30.28,NW,315,0.0,0.9,46,0.00,,SCT070,0.00,VWS V14.01,2013-02-16 00:05:00,
2013-02-15 18:10:00,31.3,12.9,30.28,NNW,338,0.2,0.2,46,0.00,,SCT070,0.00,VWS V14.01,2013-02-16 00:10:00,
2013-02-15 18:15:00,31.1,12.8,30.28,NNW,338,0.0,0.2,46,0.00,,BKN070,0.00,VWS V14.01,2013-02-16 00:15:00,
2013-02-15 18:20:00,30.7,12.4,30.28,North,0,0.0,1.3,46,0.00,,BKN070,0.00,VWS V14.01,2013-02-16 00:20:00,
2013-02-15 18:25:00,30.5,12.2,30.28,North,0,0.0,0.2,46,0.00,,BKN070,0.00,VWS V14.01,2013-02-16 00:25:00,
2013-02-15 18:30:00,30.4,12.6,30.28,North,0,0.0,0.0,47,0.00,,BKN070,0.00,VWS V14.01,2013-02-16 00:30:00,
2013-02-15 18:35:00,30.0,12.2,30.28,NNE,22,0.0,0.2,47,0.00,,BKN070,0.00,VWS V14.01,2013-02-16 00:35:00,
2013-02-15 18:40:00,29.8,12.0,30.28,North,0,0.0,0.0,47,0.00,,BKN070,0.00,VWS V14.01,2013-02-16 00:40:00,
2013-02-15 18:45:00,29.6,11.9,30.28,North,0,0.0,0.0,47,0.00,,BKN070,0.00,VWS V14.01,2013-02-16 00:45:00,
2013-02-15 18:50:00,29.3,12.1,30.28,North,0,0.0,0.4,48,0.00,,BKN070,0.00,VWS V14.01,2013-02-16 00:50:00,
2013-02-15 18:55:00,28.9,11.7,30.28,North,0,0.0,0.0,48,0.00,,BKN070,0.00,VWS V14.01,2013-02-16 00:55:00,
2013-02-15 19:05:00,28.2,11.5,30.28,North,0,0.0,0.0,49,0.00,,BKN070,0.00,VWS V14.01,2013-02-16 01:05:00,
2013-02-15 19:10:00,28.0,11.3,30.28,North,0,0.0,0.0,49,0.00,,BKN070,0.00,VWS V14.01,2013-02-16 01:10:00,
2013-02-15 19:15:00,27.8,11.1,30.28,North,0,0.0,0.0,49,0.00,,CLR,0.00,VWS V14.01,2013-02-16 01:15:00,
2013-02-15 19:20:00,27.5,11.3,30.28,North,0,0.0,0.0,50,0.00,,CLR,0.00,VWS V14.01,2013-02-16 01:20:00,
2013-02-15 19:25:00,27.5,11.3,30.28,North,0,0.0,0.0,50,0.00,,CLR,0.00,VWS V14.01,2013-02-16 01:25:00,
2013-02-15 19:30:00,27.3,11.1,30.28,North,0,0.0,0.0,50,0.00,,CLR,0.00,VWS V14.01,2013-02-16 01:30:00,
2013-02-15 19:35:00,27.1,11.4,30.28,North,0,0.0,0.0,51,0.00,,CLR,0.00,VWS V14.01,2013-02-16 01:35:00,
2013-02-15 19:40:00,26.9,11.2,30.28,North,0,0.0,0.0,51,0.00,,CLR,0.00,VWS V14.01,2013-02-16 01:40:00,
2013-02-15 19:45:00,26.8,11.1,30.28,North,0,0.0,0.0,51,0.00,,CLR,0.00,VWS V14.01,2013-02-16 01:45:00,
2013-02-15 19:50:00,26.8,11.6,30.28,North,0,0.0,0.0,52,0.00,,CLR,0.00,VWS V14.01,2013-02-16 01:50:00,
2013-02-15 19:55:00,26.8,11.6,30.28,North,0,0.0,0.0,52,0.00,,CLR,0.00,VWS V14.01,2013-02-16 01:55:00,
2013-02-15 20:05:00,26.8,11.6,30.27,North,0,0.0,0.0,52,0.00,,CLR,0.00,VWS V14.01,2013-02-16 02:05:00,
2013-02-15 20:10:00,26.8,11.6,30.27,North,0,0.0,0.0,52,0.00,,CLR,0.00,VWS V14.01,2013-02-16 02:10:00,
2013-02-15 20:15:00,26.9,11.6,30.27,North,0,0.0,0.0,52,0.00,,CLR,0.00,VWS V14.01,2013-02-16 02:15:00,
2013-02-15 20:20:00,26.9,12.1,30.27,North,0,0.0,0.0,53,0.00,,CLR,0.00,VWS V14.01,2013-02-16 02:20:00,
2013-02-15 20:25:00,26.9,12.1,30.27,North,0,0.0,0.0,53,0.00,,CLR,0.00,VWS V14.01,2013-02-16 02:25:00,
2013-02-15 20:30:00,26.9,12.1,30.28,North,0,0.0,0.0,53,0.00,,CLR,0.00,VWS V14.01,2013-02-16 02:30:00,
2013-02-15 20:35:00,27.1,12.2,30.28,North,0,0.0,0.0,53,0.00,,CLR,0.00,VWS V14.01,2013-02-16 02:35:00,
2013-02-15 20:40:00,27.3,12.9,30.28,North,0,0.0,0.0,54,0.00,,CLR,0.00,VWS V14.01,2013-02-16 02:40:00,
2013-02-15 20:45:00,27.5,13.1,30.28,North,0,0.0,0.0,54,0.00,,CLR,0.00,VWS V14.01,2013-02-16 02:45:00,
2013-02-15 20:50:00,27.7,13.2,30.29,North,0,0.0,0.0,54,0.00,,CLR,0.00,VWS V14.01,2013-02-16 02:50:00,
2013-02-15 20:55:00,28.0,13.5,30.29,North,0,0.2,0.9,54,0.00,,CLR,0.00,VWS V14.01,2013-02-16 02:55:00,
2013-02-15 21:00:00,28.4,14.3,30.30,WNW,292,0.2,0.2,55,0.00,,CLR,0.00,VWS V14.01,2013-02-16 03:00:00,
2013-02-15 21:10:00,28.2,14.9,30.30,North,0,0.0,0.2,57,0.00,,CLR,0.00,VWS V14.01,2013-02-16 03:10:00,
2013-02-15 21:15:00,28.0,15.5,30.30,NW,315,0.7,1.8,59,0.00,,OVC075,0.00,VWS V14.01,2013-02-16 03:15:00,
2013-02-15 21:20:00,27.5,15.4,30.30,SW,225,0.4,0.7,60,0.00,,OVC075,0.00,VWS V14.01,2013-02-16 03:20:00,
2013-02-15 21:25:00,27.3,16.0,30.30,NE,45,0.0,1.1,62,0.00,,OVC075,0.00,VWS V14.01,2013-02-16 03:25:00,
2013-02-15 21:30:00,26.9,15.6,30.30,North,0,0.0,0.7,62,0.00,,,0.00,VWS V14.01,2013-02-16 03:30:00,
2013-02-15 21:35:00,26.8,15.5,30.30,ESE,112,0.9,0.9,62,0.00,,,0.00,VWS V14.01,2013-02-16 03:35:00,
2013-02-15 21:40:00,26.6,15.7,30.30,NE,45,0.2,0.9,63,0.00,,,0.00,VWS V14.01,2013-02-16 03:40:00,
2013-02-15 21:45:00,26.4,15.9,30.30,East,90,0.0,0.4,64,0.00,,,0.00,VWS V14.01,2013-02-16 03:45:00,
2013-02-15 21:50:00,26.2,16.1,30.31,NNW,338,0.2,0.4,65,0.00,,,0.00,VWS V14.01,2013-02-16 03:50:00,
2013-02-15 21:55:00,26.2,16.4,30.31,NNE,22,0.0,0.2,66,0.00,,,0.00,VWS V14.01,2013-02-16 03:55:00,
2013-02-15 22:00:00,26.0,16.2,30.31,NNE,22,0.0,0.0,66,0.00,,,0.00,VWS V14.01,2013-02-16 04:00:00,
2013-02-15 22:10:00,25.9,16.8,30.30,NE,45,0.4,0.4,68,0.00,,,0.00,VWS V14.01,2013-02-16 04:10:00,
2013-02-15 22:15:00,25.5,16.8,30.30,ENE,68,0.0,1.8,69,0.00,,,0.00,VWS V14.01,2013-02-16 04:15:00,
2013-02-15 22:20:00,25.3,16.6,30.30,East,90,0.0,0.7,69,0.00,,,0.00,VWS V14.01,2013-02-16 04:20:00,
2013-02-15 22:25:00,25.3,16.9,30.30,North,0,0.0,1.3,70,0.00,,,0.00,VWS V14.01,2013-02-16 04:25:00,
2013-02-15 22:30:00,25.3,16.9,30.29,North,0,0.0,0.0,70,0.00,,,0.00,VWS V14.01,2013-02-16 04:30:00,
2013-02-15 22:35:00,25.1,16.7,30.29,ESE,112,1.1,1.1,70,0.00,,,0.00,VWS V14.01,2013-02-16 04:35:00,
2013-02-15 22:40:00,25.1,16.7,30.29,East,90,0.2,1.1,70,0.00,,,0.00,VWS V14.01,2013-02-16 04:40:00,
2013-02-15 22:45:00,25.0,16.9,30.29,NNE,22,0.2,1.6,71,0.00,,,0.00,VWS V14.01,2013-02-16 04:45:00,
2013-02-15 22:50:00,25.0,16.9,30.29,North,0,0.0,1.1,71,0.00,,,0.00,VWS V14.01,2013-02-16 04:50:00,
2013-02-15 22:55:00,24.8,16.8,30.29,North,0,0.0,0.2,71,0.00,,,0.00,VWS V14.01,2013-02-16 04:55:00,
2013-02-15 23:00:00,24.8,16.8,30.30,North,0,0.0,0.0,71,0.00,,,0.00,VWS V14.01,2013-02-16 05:00:00,
2013-02-15 23:05:00,24.8,16.8,30.30,North,0,0.4,0.4,71,0.00,,,0.00,VWS V14.01,2013-02-16 05:05:00,
2013-02-15 23:10:00,24.8,17.1,30.30,NNE,22,0.0,0.4,72,0.00,,,0.00,VWS V14.01,2013-02-16 05:10:00,
2013-02-15 23:20:00,24.8,17.1,30.30,ENE,68,0.0,0.0,72,0.00,,OVC049,0.00,VWS V14.01,2013-02-16 05:20:00,
2013-02-15 23:25:00,24.8,17.1,30.30,NE,45,0.0,0.0,72,0.00,,OVC049,0.00,VWS V14.01,2013-02-16 05:25:00,
2013-02-15 23:30:00,24.8,17.1,30.29,NE,45,0.0,0.0,72,0.00,,OVC049,0.00,VWS V14.01,2013-02-16 05:30:00,
2013-02-15 23:35:00,24.6,16.9,30.29,ENE,68,0.0,0.0,72,0.00,,OVC049,0.00,VWS V14.01,2013-02-16 05:35:00,
2013-02-15 23:40:00,24.6,16.9,30.29,ENE,68,0.0,0.0,72,0.00,,OVC049,0.00,VWS V14.01,2013-02-16 05:40:00,
2013-02-15 23:45:00,24.6,17.2,30.29,ENE,68,0.0,0.0,73,0.00,,OVC049,0.00,VWS V14.01,2013-02-16 05:45:00,
2013-02-15 23:50:00,24.6,17.2,30.29,NE,45,0.0,0.0,73,0.00,,OVC049,0.00,VWS V14.01,2013-02-16 05:50:00,
2013-02-15 23:55:00,24.4,17.0,30.29,NE,45,0.0,0.0,73,0.00,,OVC049,0.00,VWS V14.01,2013-02-16 05:55:00,